User: anonymous   Login
Location: Unspecified
(0.0000°N, 0.0000°E)
Time: 22:25:46
(UTC+00:00)
Language:

STARLINK-3605 - Orbit

View from above orbital plane
View from above orbital plane
View from above satellite
View from above satellite

Ground track
Ground track

The orbit is defined by the following mean orbital elements,

1 51805U          26145.59641748 +.00000000 +00000-0 +10363-3 0 00000
2 51805  53.2116 343.9495 0001284  87.3979 272.7160 15.08839518    07
Epoch (UTC): 25 May 2026 14:18:50
Eccentricity: 0.0001284
inclination: 53.2116°
perigee height: 539 km
apogee height: 541 km
right ascension of ascending node: 343.9495°
argument of perigee: 87.3979°
revolutions per day: 15.08839518
mean anomaly at epoch: 272.7160°

The dashed part of the orbit path shows where the satellite is in the earth's shadow,  

DLR